Time,TemperatureF,DewpointF,PressureIn,WindDirection,WindDirectionDegrees,WindSpeedMPH,WindSpeedGustMPH,Humidity,HourlyPrecipIn,Conditions,Clouds,dailyrainin,SoftwareType,DateUTC
2013-03-16 00:00:00,49.3,36.8,29.91,ENE,60,0.0,0.0,62,0.00,,---,0.00,VWS V14.01,2013-03-16 07:00:00,
2013-03-16 00:06:00,49.3,37.2,29.91,ENE,60,0.0,0.0,63,0.00,,---,0.00,VWS V14.01,2013-03-16 07:06:00,
2013-03-16 00:12:00,49.3,37.6,29.91,ENE,60,0.0,0.0,64,0.00,,---,0.00,VWS V14.01,2013-03-16 07:12:00,
2013-03-16 00:18:00,49.3,37.6,29.91,ENE,60,0.0,0.0,64,0.00,,---,0.00,VWS V14.01,2013-03-16 07:18:00,
2013-03-16 00:24:00,49.3,37.6,29.88,ENE,60,0.0,0.0,64,0.00,,---,0.00,VWS V14.01,2013-03-16 07:24:00,
2013-03-16 00:30:00,49.3,37.6,29.88,ENE,60,0.0,0.0,64,0.00,,---,0.00,VWS V14.01,2013-03-16 07:30:00,
2013-03-16 00:36:00,49.3,37.6,29.88,ENE,60,0.0,0.0,64,0.00,,---,0.00,VWS V14.01,2013-03-16 07:36:00,
2013-03-16 00:42:00,49.3,37.2,29.88,ENE,60,0.0,0.0,63,0.00,,---,0.00,VWS V14.01,2013-03-16 07:42:00,
2013-03-16 00:48:00,49.3,37.2,29.88,ENE,60,0.0,0.0,63,0.00,,---,0.00,VWS V14.01,2013-03-16 07:48:00,
2013-03-16 00:54:00,49.3,37.2,29.88,ENE,60,0.0,0.0,63,0.00,,---,0.00,VWS V14.01,2013-03-16 07:54:00,
2013-03-16 01:00:00,49.3,37.2,29.88,ENE,60,0.0,0.0,63,0.00,,---,0.00,VWS V14.01,2013-03-16 08:00:00,
2013-03-16 01:06:00,49.1,37.1,29.88,NE,56,0.0,0.0,63,0.00,,---,0.00,VWS V14.01,2013-03-16 08:06:00,
2013-03-16 01:12:00,49.1,37.1,29.88,NE,56,0.0,0.0,63,0.00,,---,0.00,VWS V14.01,2013-03-16 08:12:00,
2013-03-16 01:18:00,49.1,37.5,29.88,NE,56,0.0,0.0,64,0.00,,---,0.00,VWS V14.01,2013-03-16 08:18:00,
2013-03-16 01:24:00,48.9,37.3,29.88,NE,56,0.0,0.0,64,0.00,,---,0.00,VWS V14.01,2013-03-16 08:24:00,
2013-03-16 01:30:00,48.9,36.5,29.88,NE,56,0.0,0.0,62,0.00,,---,0.00,VWS V14.01,2013-03-16 08:30:00,
2013-03-16 01:36:00,48.7,35.5,29.88,NE,56,0.0,0.0,60,0.00,,---,0.00,VWS V14.01,2013-03-16 08:36:00,
2013-03-16 01:42:00,48.7,35.9,29.88,NE,56,0.0,0.0,61,0.00,,---,0.00,VWS V14.01,2013-03-16 08:42:00,
2013-03-16 01:48:00,48.7,34.6,29.88,NE,47,0.0,0.0,58,0.00,,---,0.00,VWS V14.01,2013-03-16 08:48:00,
2013-03-16 01:54:00,48.7,34.6,29.88,ENE,78,0.0,0.0,58,0.00,,---,0.00,VWS V14.01,2013-03-16 08:54:00,
2013-03-16 02:00:00,48.7,34.6,29.88,ENE,78,0.0,0.0,58,0.00,,---,0.00,VWS V14.01,2013-03-16 09:00:00,
2013-03-16 02:06:00,48.7,34.6,29.88,ENE,78,0.0,0.0,58,0.00,,---,0.00,VWS V14.01,2013-03-16 09:06:00,
2013-03-16 02:12:00,48.6,32.7,29.88,ENE,78,0.0,0.0,54,0.00,,---,0.00,VWS V14.01,2013-03-16 09:12:00,
2013-03-16 02:18:00,48.7,33.8,29.88,ENE,78,0.0,0.0,56,0.00,,---,0.00,VWS V14.01,2013-03-16 09:18:00,
2013-03-16 02:24:00,48.6,33.6,29.88,NNW,334,0.0,2.7,56,0.00,,---,0.00,VWS V14.01,2013-03-16 09:24:00,
2013-03-16 02:30:00,48.6,34.5,29.88,NNW,333,0.0,0.0,58,0.00,,---,0.00,VWS V14.01,2013-03-16 09:30:00,
2013-03-16 02:36:00,48.6,34.9,29.88,NNW,333,0.0,0.0,59,0.00,,---,0.00,VWS V14.01,2013-03-16 09:36:00,
2013-03-16 02:42:00,48.6,35.3,29.88,NNW,333,0.0,0.0,60,0.00,,---,0.00,VWS V14.01,2013-03-16 09:42:00,
2013-03-16 02:48:00,48.4,35.2,29.88,NNW,333,0.0,0.0,60,0.00,,---,0.00,VWS V14.01,2013-03-16 09:48:00,
2013-03-16 02:54:00,48.4,35.6,29.88,NNW,333,0.0,0.0,61,0.00,,---,0.00,VWS V14.01,2013-03-16 09:54:00,
2013-03-16 03:00:00,48.4,36.0,29.88,NNW,334,0.0,0.0,62,0.00,,---,0.00,VWS V14.01,2013-03-16 10:00:00,
2013-03-16 03:06:00,48.0,36.0,29.88,NNE,33,0.0,0.0,63,0.00,,---,0.00,VWS V14.01,2013-03-16 10:06:00,
2013-03-16 03:12:00,48.0,36.4,29.88,NNE,33,0.0,0.0,64,0.00,,---,0.00,VWS V14.01,2013-03-16 10:12:00,
2013-03-16 03:18:00,47.8,37.0,29.88,NNE,33,0.0,0.0,66,0.00,,---,0.00,VWS V14.01,2013-03-16 10:18:00,
2013-03-16 03:24:00,47.7,37.3,29.85,NNE,33,0.0,0.0,67,0.00,,---,0.00,VWS V14.01,2013-03-16 10:24:00,
2013-03-16 03:30:00,47.7,37.6,29.85,NNE,33,0.0,0.0,68,0.00,,---,0.00,VWS V14.01,2013-03-16 10:30:00,
2013-03-16 03:36:00,47.7,37.6,29.85,NNE,33,0.0,0.0,68,0.00,,---,0.00,VWS V14.01,2013-03-16 10:36:00,
2013-03-16 03:42:00,47.5,37.8,29.85,NE,46,0.0,0.0,69,0.00,,---,0.00,VWS V14.01,2013-03-16 10:42:00,
2013-03-16 03:48:00,47.7,38.0,29.85,NE,46,0.0,0.0,69,0.00,,---,0.00,VWS V14.01,2013-03-16 10:48:00,
2013-03-16 03:54:00,47.7,38.0,29.85,NE,46,0.0,0.0,69,0.00,,---,0.00,VWS V14.01,2013-03-16 10:54:00,
2013-03-16 04:00:00,47.7,38.4,29.85,NE,46,0.0,0.0,70,0.00,,---,0.00,VWS V14.01,2013-03-16 11:00:00,
2013-03-16 04:06:00,47.5,38.6,29.85,NE,46,0.0,0.0,71,0.00,,---,0.00,VWS V14.01,2013-03-16 11:06:00,
2013-03-16 04:12:00,47.5,38.6,29.85,NE,46,0.0,0.0,71,0.00,,---,0.00,VWS V14.01,2013-03-16 11:12:00,
2013-03-16 04:18:00,47.5,38.9,29.85,NE,46,0.0,0.0,72,0.00,,---,0.00,VWS V14.01,2013-03-16 11:18:00,
2013-03-16 04:24:00,47.5,38.9,29.85,NE,46,0.0,0.0,72,0.00,,---,0.00,VWS V14.01,2013-03-16 11:24:00,
2013-03-16 04:30:00,47.5,38.9,29.85,NE,46,0.0,0.0,72,0.00,,---,0.00,VWS V14.01,2013-03-16 11:30:00,
2013-03-16 04:36:00,47.5,39.3,29.85,NE,46,0.0,0.0,73,0.00,,---,0.00,VWS V14.01,2013-03-16 11:36:00,
2013-03-16 04:42:00,47.5,39.3,29.85,NE,46,0.0,0.0,73,0.00,,---,0.00,VWS V14.01,2013-03-16 11:42:00,
2013-03-16 04:48:00,47.5,39.3,29.85,NE,46,0.0,0.0,73,0.00,,---,0.00,VWS V14.01,2013-03-16 11:48:00,
2013-03-16 04:54:00,47.5,39.6,29.85,NE,46,0.0,0.0,74,0.00,,---,0.00,VWS V14.01,2013-03-16 11:54:00,
2013-03-16 05:00:00,47.5,39.6,29.85,NE,46,0.0,0.0,74,0.00,,---,0.00,VWS V14.01,2013-03-16 12:00:00,
2013-03-16 05:06:00,47.3,39.5,29.85,NE,46,0.0,0.0,74,0.00,,---,0.00,VWS V14.01,2013-03-16 12:06:00,
2013-03-16 05:12:00,47.3,39.5,29.83,NE,46,0.0,0.0,74,0.00,,---,0.00,VWS V14.01,2013-03-16 12:12:00,
2013-03-16 05:18:00,47.3,39.8,29.83,NE,46,0.0,0.0,75,0.00,,---,0.00,VWS V14.01,2013-03-16 12:18:00,
2013-03-16 05:24:00,47.3,39.8,29.83,NE,46,0.0,0.0,75,0.00,,---,0.00,VWS V14.01,2013-03-16 12:24:00,
2013-03-16 05:30:00,47.3,39.8,29.83,NE,46,0.0,0.0,75,0.00,,---,0.00,VWS V14.01,2013-03-16 12:30:00,
2013-03-16 05:36:00,47.3,39.8,29.83,NE,46,0.0,0.0,75,0.00,,---,0.00,VWS V14.01,2013-03-16 12:36:00,
2013-03-16 05:42:00,47.3,40.1,29.83,NE,46,0.0,0.0,76,0.00,,---,0.00,VWS V14.01,2013-03-16 12:42:00,
2013-03-16 05:48:00,47.3,40.1,29.83,NE,46,0.0,0.0,76,0.00,,---,0.00,VWS V14.01,2013-03-16 12:48:00,
2013-03-16 05:54:00,47.3,40.1,29.83,NE,46,0.0,0.0,76,0.00,,---,0.00,VWS V14.01,2013-03-16 12:54:00,
2013-03-16 06:00:00,47.3,40.1,29.83,NE,46,0.0,0.0,76,0.00,,---,0.00,VWS V14.01,2013-03-16 13:00:00,
2013-03-16 06:06:00,47.3,40.1,29.83,NE,46,0.0,0.0,76,0.00,,---,0.00,VWS V14.01,2013-03-16 13:06:00,
2013-03-16 06:12:00,47.1,40.3,29.83,North,6,0.0,0.0,77,0.00,,---,0.00,VWS V14.01,2013-03-16 13:12:00,
2013-03-16 06:18:00,47.1,40.3,29.83,North,6,0.0,0.0,77,0.00,,---,0.00,VWS V14.01,2013-03-16 13:18:00,
2013-03-16 06:24:00,47.1,40.3,29.83,North,6,0.0,0.0,77,0.00,,---,0.00,VWS V14.01,2013-03-16 13:24:00,
2013-03-16 06:30:00,47.1,40.3,29.83,North,6,0.0,0.0,77,0.00,,---,0.00,VWS V14.01,2013-03-16 13:30:00,
2013-03-16 06:36:00,47.1,40.3,29.83,North,1,0.0,0.0,77,0.00,,---,0.00,VWS V14.01,2013-03-16 13:36:00,
2013-03-16 06:42:00,47.1,40.6,29.83,North,1,0.0,0.0,78,0.00,,---,0.00,VWS V14.01,2013-03-16 13:42:00,
2013-03-16 06:48:00,47.1,40.6,29.83,North,1,0.0,0.0,78,0.00,,---,0.00,VWS V14.01,2013-03-16 13:48:00,
2013-03-16 06:54:00,46.9,40.5,29.83,North,6,0.0,0.0,78,0.00,,---,0.00,VWS V14.01,2013-03-16 13:54:00,
2013-03-16 07:00:00,47.1,40.6,29.83,North,6,0.0,0.0,78,0.00,,---,0.00,VWS V14.01,2013-03-16 14:00:00,
2013-03-16 07:06:00,47.1,40.6,29.83,North,6,0.0,0.0,78,0.00,,---,0.00,VWS V14.01,2013-03-16 14:06:00,
2013-03-16 07:12:00,46.9,40.5,29.83,NE,45,0.0,3.1,78,0.00,,---,0.00,VWS V14.01,2013-03-16 14:12:00,
2013-03-16 07:18:00,46.9,40.1,29.83,NE,45,0.0,0.0,77,0.00,,---,0.00,VWS V14.01,2013-03-16 14:18:00,
2013-03-16 07:24:00,47.1,40.3,29.83,NE,45,0.0,0.0,77,0.00,,---,0.00,VWS V14.01,2013-03-16 14:24:00,
2013-03-16 07:30:00,47.1,40.0,29.83,NE,45,0.0,0.0,76,0.00,,---,0.00,VWS V14.01,2013-03-16 14:30:00,
2013-03-16 07:36:00,46.9,39.8,29.83,NE,45,0.0,0.0,76,0.00,,---,0.00,VWS V14.01,2013-03-16 14:36:00,
2013-03-16 07:42:00,46.9,40.1,29.83,NE,45,0.0,0.0,77,0.00,,---,0.00,VWS V14.01,2013-03-16 14:42:00,
2013-03-16 07:48:00,46.9,40.1,29.83,NNE,24,0.0,2.7,77,0.00,,---,0.00,VWS V14.01,2013-03-16 14:48:00,
2013-03-16 07:54:00,46.9,40.1,29.83,NNE,24,0.0,0.0,77,0.00,,---,0.00,VWS V14.01,2013-03-16 14:54:00,
2013-03-16 08:00:00,47.1,40.3,29.83,NNE,24,0.0,0.0,77,0.00,,---,0.00,VWS V14.01,2013-03-16 15:00:00,
2013-03-16 08:06:00,46.9,40.1,29.83,NE,40,0.0,0.0,77,0.00,,---,0.00,VWS V14.01,2013-03-16 15:06:00,
2013-03-16 08:14:00,47.1,40.3,29.83,NE,40,0.0,0.0,77,0.00,,---,0.00,VWS V14.01,2013-03-16 15:14:00,
2013-03-16 08:20:00,47.1,40.3,29.83,NE,40,0.0,0.0,77,0.00,,---,0.00,VWS V14.01,2013-03-16 15:20:00,
2013-03-16 08:26:00,47.1,40.0,29.83,NE,39,0.0,0.0,76,0.00,,---,0.00,VWS V14.01,2013-03-16 15:26:00,
2013-03-16 08:32:00,47.1,40.0,29.83,NE,39,0.0,0.0,76,0.00,,---,0.00,VWS V14.01,2013-03-16 15:32:00,
2013-03-16 08:38:00,46.9,37.7,29.80,North,3,0.0,0.0,70,0.00,,---,0.00,VWS V14.01,2013-03-16 15:38:00,
2013-03-16 08:44:00,47.1,37.1,29.80,North,357,0.0,0.0,68,0.00,,---,0.00,VWS V14.01,2013-03-16 15:44:00,
2013-03-16 08:50:00,47.3,37.3,29.80,North,357,0.0,0.0,68,0.00,,---,0.00,VWS V14.01,2013-03-16 15:50:00,
2013-03-16 08:56:00,47.3,37.3,29.80,North,357,0.0,0.0,68,0.00,,---,0.00,VWS V14.01,2013-03-16 15:56:00,
2013-03-16 09:02:00,47.3,35.4,29.80,NNE,16,0.0,2.2,63,0.00,,---,0.00,VWS V14.01,2013-03-16 16:02:00,
2013-03-16 09:08:00,47.5,34.7,29.80,SW,226,0.0,3.6,61,0.00,,---,0.00,VWS V14.01,2013-03-16 16:08:00,
2013-03-16 09:14:00,47.7,33.2,29.80,SE,140,0.0,2.7,57,0.00,,---,0.00,VWS V14.01,2013-03-16 16:14:00,
2013-03-16 09:20:00,47.5,33.5,29.80,East,100,0.0,0.0,58,0.00,,---,0.00,VWS V14.01,2013-03-16 16:20:00,
2013-03-16 09:26:00,47.5,33.0,29.80,SSW,194,0.0,0.0,57,0.00,,---,0.00,VWS V14.01,2013-03-16 16:26:00,
2013-03-16 09:32:00,47.5,32.6,29.80,North,6,0.0,0.0,56,0.00,,---,0.00,VWS V14.01,2013-03-16 16:32:00,
2013-03-16 09:38:00,47.5,32.1,29.80,NNW,337,2.2,2.7,55,0.00,,---,0.00,VWS V14.01,2013-03-16 16:38:00,
2013-03-16 09:44:00,47.7,32.8,29.80,NW,310,2.2,2.2,56,0.00,,---,0.00,VWS V14.01,2013-03-16 16:44:00,
2013-03-16 09:50:00,47.5,29.8,29.80,North,6,0.0,5.4,50,0.00,,---,0.00,VWS V14.01,2013-03-16 16:50:00,
2013-03-16 09:56:00,47.7,30.9,29.80,NNW,341,2.2,3.6,52,0.00,,---,0.00,VWS V14.01,2013-03-16 16:56:00,
2013-03-16 10:02:00,47.8,30.6,29.80,SW,231,0.0,0.0,51,0.00,,---,0.00,VWS V14.01,2013-03-16 17:02:00,
2013-03-16 10:08:00,47.8,32.5,29.80,SW,232,0.0,0.0,55,0.00,,---,0.00,VWS V14.01,2013-03-16 17:08:00,
2013-03-16 10:14:00,47.8,33.4,29.80,WSW,237,0.0,0.0,57,0.00,,---,0.00,VWS V14.01,2013-03-16 17:14:00,
2013-03-16 10:20:00,47.7,34.5,29.80,WSW,237,0.0,0.0,60,0.00,,---,0.00,VWS V14.01,2013-03-16 17:20:00,
2013-03-16 10:26:00,47.7,35.3,29.80,WSW,238,0.0,0.0,62,0.04,,---,0.04,VWS V14.01,2013-03-16 17:26:00,
2013-03-16 10:32:00,47.7,35.7,29.80,WSW,238,0.0,0.0,63,0.04,,---,0.04,VWS V14.01,2013-03-16 17:32:00,
2013-03-16 10:38:00,47.7,35.7,29.80,WSW,238,0.0,0.0,63,0.04,,---,0.04,VWS V14.01,2013-03-16 17:38:00,
2013-03-16 10:44:00,47.8,37.0,29.80,WSW,238,0.0,0.0,66,0.04,,---,0.04,VWS V14.01,2013-03-16 17:44:00,
2013-03-16 10:50:00,48.0,37.2,29.80,WSW,238,0.0,0.0,66,0.04,,---,0.04,VWS V14.01,2013-03-16 17:50:00,
2013-03-16 10:56:00,48.0,37.6,29.80,SW,236,0.0,0.0,67,0.04,,---,0.04,VWS V14.01,2013-03-16 17:56:00,
2013-03-16 11:02:00,48.0,37.2,29.80,WSW,247,0.0,0.0,66,0.04,,---,0.04,VWS V14.01,2013-03-16 18:02:00,
2013-03-16 11:08:00,48.2,37.4,29.77,West,269,3.1,5.8,66,0.04,,---,0.04,VWS V14.01,2013-03-16 18:08:00,
2013-03-16 11:14:00,48.4,32.5,29.77,NNE,24,0.0,0.0,54,0.04,,---,0.04,VWS V14.01,2013-03-16 18:14:00,
2013-03-16 11:20:00,48.7,35.1,29.77,NE,34,0.0,0.0,59,0.04,,---,0.04,VWS V14.01,2013-03-16 18:20:00,
2013-03-16 11:26:00,48.7,29.4,29.77,North,10,0.0,0.0,47,0.00,,---,0.04,VWS V14.01,2013-03-16 18:26:00,
2013-03-16 11:32:00,49.1,31.8,29.77,North,10,0.0,0.0,51,0.00,,---,0.04,VWS V14.01,2013-03-16 18:32:00,
2013-03-16 11:38:00,49.5,34.0,29.77,North,11,0.0,0.0,55,0.00,,---,0.04,VWS V14.01,2013-03-16 18:38:00,
2013-03-16 11:44:00,49.6,29.2,29.77,South,191,0.0,0.0,45,0.00,,---,0.04,VWS V14.01,2013-03-16 18:44:00,
2013-03-16 11:50:00,50.0,32.1,29.77,SSW,211,0.0,0.0,50,0.00,,---,0.04,VWS V14.01,2013-03-16 18:50:00,
2013-03-16 11:56:00,50.2,30.8,29.77,SSW,211,0.0,0.0,47,0.00,,---,0.04,VWS V14.01,2013-03-16 18:56:00,
2013-03-16 12:02:00,50.2,30.8,29.77,WSW,241,3.1,4.0,47,0.00,,---,0.04,VWS V14.01,2013-03-16 19:02:00,
2013-03-16 12:08:00,49.5,26.8,29.77,SSW,207,2.7,7.2,41,0.00,,---,0.04,VWS V14.01,2013-03-16 19:08:00,
2013-03-16 12:14:00,49.6,27.5,29.77,WNW,286,0.0,3.1,42,0.00,,---,0.04,VWS V14.01,2013-03-16 19:14:00,
2013-03-16 12:20:00,49.6,29.2,29.77,NNE,15,0.0,2.2,45,0.00,,---,0.04,VWS V14.01,2013-03-16 19:20:00,
2013-03-16 12:26:00,49.8,27.7,29.74,East,80,0.0,5.4,42,0.00,,---,0.04,VWS V14.01,2013-03-16 19:26:00,
2013-03-16 12:32:00,49.8,28.2,29.74,East,83,0.0,3.1,43,0.00,,---,0.04,VWS V14.01,2013-03-16 19:32:00,
2013-03-16 12:38:00,49.8,30.9,29.74,SSE,149,0.0,0.0,48,0.00,,---,0.04,VWS V14.01,2013-03-16 19:38:00,
2013-03-16 12:44:00,49.3,28.9,29.74,NNE,26,2.2,3.1,45,0.00,,---,0.04,VWS V14.01,2013-03-16 19:44:00,
2013-03-16 12:50:00,48.7,30.5,29.74,NW,310,0.0,0.0,49,0.00,,---,0.04,VWS V14.01,2013-03-16 19:50:00,
2013-03-16 12:56:00,48.6,31.8,29.74,SE,131,0.0,2.2,52,0.00,,---,0.04,VWS V14.01,2013-03-16 19:56:00,
2013-03-16 13:02:00,48.2,32.8,29.74,SE,131,0.0,0.0,55,0.00,,---,0.04,VWS V14.01,2013-03-16 20:02:00,
2013-03-16 13:08:00,48.2,33.7,29.74,SE,131,0.0,0.0,57,0.00,,---,0.04,VWS V14.01,2013-03-16 20:08:00,
2013-03-16 13:14:00,48.0,36.4,29.74,SSE,167,0.0,3.6,64,0.04,,---,0.08,VWS V14.01,2013-03-16 20:14:00,
2013-03-16 13:20:00,47.5,33.5,29.74,North,5,0.0,0.0,58,0.08,,---,0.12,VWS V14.01,2013-03-16 20:20:00,
2013-03-16 13:26:00,47.3,34.5,29.71,ESE,117,0.0,0.0,61,0.08,,---,0.12,VWS V14.01,2013-03-16 20:26:00,
2013-03-16 13:32:00,47.3,35.4,29.71,ESE,105,0.0,0.0,63,0.08,,---,0.12,VWS V14.01,2013-03-16 20:32:00,
2013-03-16 13:38:00,47.1,33.5,29.71,NE,40,0.0,2.2,59,0.08,,---,0.12,VWS V14.01,2013-03-16 20:38:00,
2013-03-16 13:44:00,47.1,34.0,29.71,SW,221,0.0,0.0,60,0.08,,---,0.12,VWS V14.01,2013-03-16 20:44:00,
2013-03-16 13:50:00,47.3,33.7,29.71,North,11,3.1,3.1,59,0.08,,---,0.12,VWS V14.01,2013-03-16 20:50:00,
2013-03-16 13:56:00,47.8,36.7,29.71,ENE,65,7.6,7.6,65,0.08,,---,0.12,VWS V14.01,2013-03-16 20:56:00,
2013-03-16 14:02:00,47.7,33.2,29.71,East,91,0.0,3.6,57,0.08,,---,0.12,VWS V14.01,2013-03-16 21:02:00,
2013-03-16 14:10:00,47.7,32.8,29.71,SSE,163,0.0,5.4,56,0.08,,---,0.12,VWS V14.01,2013-03-16 21:10:00,
2013-03-16 14:16:00,47.3,32.8,29.71,SE,139,0.0,5.4,57,0.04,,---,0.12,VWS V14.01,2013-03-16 21:16:00,
2013-03-16 14:22:00,47.1,33.1,29.71,North,7,0.0,0.0,58,0.00,,---,0.12,VWS V14.01,2013-03-16 21:22:00,
2013-03-16 14:28:00,46.6,35.1,29.71,South,183,2.2,4.0,64,0.04,,---,0.16,VWS V14.01,2013-03-16 21:28:00,
2013-03-16 14:34:00,46.4,32.9,29.71,NNE,16,0.0,2.7,59,0.04,,---,0.16,VWS V14.01,2013-03-16 21:34:00,
2013-03-16 14:40:00,46.6,32.6,29.71,NNE,21,0.0,0.0,58,0.04,,---,0.16,VWS V14.01,2013-03-16 21:40:00,
2013-03-16 14:46:00,46.9,33.4,29.71,ENE,77,0.0,4.0,59,0.04,,---,0.16,VWS V14.01,2013-03-16 21:46:00,
2013-03-16 14:52:00,46.8,31.5,29.71,SSW,212,0.0,5.8,55,0.04,,---,0.16,VWS V14.01,2013-03-16 21:52:00,
2013-03-16 14:58:00,46.8,36.0,29.71,WSW,254,0.0,0.0,66,0.04,,---,0.16,VWS V14.01,2013-03-16 21:58:00,
2013-03-16 15:04:00,47.3,34.5,29.71,SE,127,0.0,8.3,61,0.04,,---,0.16,VWS V14.01,2013-03-16 22:04:00,
2013-03-16 15:10:00,47.8,33.8,29.68,North,10,0.0,5.4,58,0.04,,---,0.16,VWS V14.01,2013-03-16 22:10:00,
2013-03-16 15:16:00,48.4,33.9,29.68,East,85,0.0,0.0,57,0.04,,---,0.16,VWS V14.01,2013-03-16 22:16:00,
2013-03-16 15:22:00,48.6,32.7,29.68,West,265,0.0,4.0,54,0.04,,---,0.16,VWS V14.01,2013-03-16 22:22:00,
2013-03-16 15:28:00,48.2,30.9,29.68,SSE,149,0.0,0.0,51,0.00,,---,0.16,VWS V14.01,2013-03-16 22:28:00,
2013-03-16 15:34:00,48.4,33.9,29.68,NNE,21,0.0,3.1,57,0.00,,---,0.16,VWS V14.01,2013-03-16 22:34:00,
2013-03-16 15:40:00,48.2,30.9,29.68,NW,305,4.9,4.9,51,0.00,,---,0.16,VWS V14.01,2013-03-16 22:40:00,
2013-03-16 15:46:00,47.7,31.4,29.68,NNE,27,3.1,3.1,53,0.00,,---,0.16,VWS V14.01,2013-03-16 22:46:00,
2013-03-16 15:54:00,48.7,31.4,29.68,NW,313,0.0,3.1,51,0.00,,---,0.16,VWS V14.01,2013-03-16 22:54:00,
2013-03-16 16:00:00,49.5,32.6,29.68,North,7,0.0,5.4,52,0.00,,---,0.16,VWS V14.01,2013-03-16 23:00:00,
2013-03-16 16:06:00,48.7,29.4,29.68,WSW,244,0.0,5.8,47,0.00,,---,0.16,VWS V14.01,2013-03-16 23:06:00,
2013-03-16 16:12:00,47.7,29.5,29.68,NNW,335,0.0,0.0,49,0.00,,---,0.16,VWS V14.01,2013-03-16 23:12:00,
2013-03-16 16:18:00,47.1,26.9,29.68,SW,229,4.0,4.9,45,0.00,,---,0.16,VWS V14.01,2013-03-16 23:18:00,
2013-03-16 16:24:00,46.2,27.1,29.68,WSW,258,3.6,5.4,47,0.00,,---,0.16,VWS V14.01,2013-03-16 23:24:00,
2013-03-16 16:30:00,46.2,29.1,29.68,East,101,2.7,7.2,51,0.00,,---,0.16,VWS V14.01,2013-03-16 23:30:00,
2013-03-16 16:36:00,46.0,30.3,29.68,WSW,252,0.0,3.1,54,0.00,,---,0.16,VWS V14.01,2013-03-16 23:36:00,
2013-03-16 16:42:00,46.4,29.3,29.68,SW,229,0.0,0.0,51,0.00,,---,0.16,VWS V14.01,2013-03-16 23:42:00,
2013-03-16 16:48:00,47.1,31.8,29.68,North,11,4.9,4.9,55,0.00,,---,0.16,VWS V14.01,2013-03-16 23:48:00,
2013-03-16 16:54:00,47.3,29.6,29.68,South,182,0.0,0.0,50,0.00,,---,0.16,VWS V14.01,2013-03-16 23:54:00,
2013-03-16 17:00:00,46.9,30.2,29.68,SW,222,2.7,2.7,52,0.00,,---,0.16,VWS V14.01,2013-03-17 00:00:00,
2013-03-16 17:06:00,46.4,27.8,29.68,SW,231,5.4,5.8,48,0.00,,---,0.16,VWS V14.01,2013-03-17 00:06:00,
2013-03-16 17:12:00,46.2,25.0,29.68,SSE,156,3.1,4.0,43,0.00,,---,0.16,VWS V14.01,2013-03-17 00:12:00,
2013-03-16 17:18:00,46.2,29.1,29.68,East,86,2.2,4.0,51,0.00,,---,0.16,VWS V14.01,2013-03-17 00:18:00,
2013-03-16 17:24:00,46.0,25.9,29.68,NE,53,0.0,3.1,45,0.00,,---,0.16,VWS V14.01,2013-03-17 00:24:00,
2013-03-16 17:30:00,45.9,25.7,29.68,SSW,205,0.0,0.0,45,0.00,,---,0.16,VWS V14.01,2013-03-17 00:30:00,
2013-03-16 17:36:00,46.2,23.8,29.68,WSW,255,3.6,5.4,41,0.00,,---,0.16,VWS V14.01,2013-03-17 00:36:00,
2013-03-16 17:42:00,46.6,25.3,29.68,West,262,0.0,3.6,43,0.00,,---,0.16,VWS V14.01,2013-03-17 00:42:00,
2013-03-16 17:48:00,46.4,24.6,29.68,NNE,28,2.2,2.7,42,0.00,,---,0.16,VWS V14.01,2013-03-17 00:48:00,
2013-03-16 17:54:00,46.0,23.7,29.68,WSW,240,3.1,4.0,41,0.00,,---,0.16,VWS V14.01,2013-03-17 00:54:00,
2013-03-16 18:00:00,45.9,22.9,29.68,ENE,69,5.8,5.8,40,0.00,,---,0.16,VWS V14.01,2013-03-17 01:00:00,
2013-03-16 18:06:00,45.3,21.8,29.68,NE,55,4.0,4.0,39,0.00,,---,0.16,VWS V14.01,2013-03-17 01:06:00,
2013-03-16 18:12:00,44.6,20.6,29.68,SW,235,3.6,4.0,38,0.00,,---,0.16,VWS V14.01,2013-03-17 01:12:00,
2013-03-16 18:18:00,44.6,21.8,29.68,NNW,329,3.6,4.0,40,0.00,,---,0.16,VWS V14.01,2013-03-17 01:18:00,
2013-03-16 18:24:00,44.2,23.7,29.68,West,275,0.0,4.0,44,0.00,,---,0.16,VWS V14.01,2013-03-17 01:24:00,
2013-03-16 18:30:00,43.7,21.0,29.68,NE,46,0.0,4.9,40,0.00,,---,0.16,VWS V14.01,2013-03-17 01:30:00,
2013-03-16 18:36:00,43.7,21.6,29.68,SW,215,0.0,3.6,41,0.00,,---,0.16,VWS V14.01,2013-03-17 01:36:00,
2013-03-16 18:42:00,43.5,21.4,29.71,East,85,0.0,3.6,41,0.00,,---,0.16,VWS V14.01,2013-03-17 01:42:00,
2013-03-16 18:48:00,43.3,22.9,29.71,East,99,0.0,0.0,44,0.00,,---,0.16,VWS V14.01,2013-03-17 01:48:00,
2013-03-16 18:54:00,43.3,22.9,29.71,NNE,13,0.0,3.1,44,0.00,,---,0.16,VWS V14.01,2013-03-17 01:54:00,
2013-03-16 19:00:00,43.0,21.5,29.71,West,259,3.6,3.6,42,0.00,,---,0.16,VWS V14.01,2013-03-17 02:00:00,
2013-03-16 19:06:00,43.0,21.5,29.71,WSW,257,0.0,3.6,42,0.00,,---,0.16,VWS V14.01,2013-03-17 02:06:00,
2013-03-16 19:12:00,42.8,20.2,29.71,NNE,17,2.7,8.7,40,0.00,,---,0.16,VWS V14.01,2013-03-17 02:12:00,
2013-03-16 19:18:00,42.8,24.5,29.71,NNE,17,0.0,0.0,48,0.00,,---,0.16,VWS V14.01,2013-03-17 02:18:00,
2013-03-16 19:24:00,42.4,22.6,29.71,NE,37,0.0,0.0,45,0.00,,---,0.16,VWS V14.01,2013-03-17 02:24:00,
2013-03-16 19:30:00,42.4,21.0,29.71,North,10,0.0,3.6,42,0.00,,---,0.16,VWS V14.01,2013-03-17 02:30:00,
2013-03-16 19:36:00,42.4,23.1,29.71,North,8,0.0,0.0,46,0.00,,---,0.16,VWS V14.01,2013-03-17 02:36:00,
2013-03-16 19:42:00,42.3,21.4,29.71,West,265,0.0,3.6,43,0.00,,---,0.16,VWS V14.01,2013-03-17 02:42:00,
2013-03-16 19:48:00,42.3,24.0,29.71,ESE,106,0.0,3.1,48,0.00,,---,0.16,VWS V14.01,2013-03-17 02:48:00,
2013-03-16 19:54:00,42.1,22.8,29.71,SE,137,0.0,0.0,46,0.00,,---,0.16,VWS V14.01,2013-03-17 02:54:00,
2013-03-16 20:00:00,41.9,23.2,29.71,NE,46,0.0,3.1,47,0.00,,---,0.16,VWS V14.01,2013-03-17 03:00:00,
2013-03-16 20:06:00,41.7,22.0,29.71,ENE,69,0.0,3.6,45,0.00,,---,0.16,VWS V14.01,2013-03-17 03:06:00,
2013-03-16 20:12:00,41.5,20.7,29.71,NW,320,0.0,4.0,43,0.00,,---,0.16,VWS V14.01,2013-03-17 03:12:00,
2013-03-16 20:18:00,41.7,22.5,29.71,NW,320,0.0,0.0,46,0.00,,---,0.16,VWS V14.01,2013-03-17 03:18:00,
2013-03-16 20:24:00,41.7,24.0,29.71,NW,320,0.0,0.0,49,0.00,,---,0.16,VWS V14.01,2013-03-17 03:24:00,
2013-03-16 20:30:00,41.7,24.9,29.71,NW,320,0.0,0.0,51,0.00,,---,0.16,VWS V14.01,2013-03-17 03:30:00,
2013-03-16 20:36:00,41.5,22.3,29.71,SW,220,0.0,5.4,46,0.00,,---,0.16,VWS V14.01,2013-03-17 03:36:00,
2013-03-16 20:42:00,41.5,20.7,29.71,West,263,0.0,4.9,43,0.00,,---,0.16,VWS V14.01,2013-03-17 03:42:00,
2013-03-16 20:48:00,41.5,22.8,29.71,SW,232,0.0,3.1,47,0.00,,---,0.16,VWS V14.01,2013-03-17 03:48:00,
2013-03-16 20:54:00,41.5,21.3,29.71,West,273,0.0,0.0,44,0.00,,---,0.16,VWS V14.01,2013-03-17 03:54:00,
2013-03-16 21:02:00,41.4,22.1,29.71,NNW,343,0.0,0.0,46,0.00,,---,0.16,VWS V14.01,2013-03-17 04:02:00,
2013-03-16 21:04:00,41.4,22.1,29.71,North,8,0.0,0.0,46,0.00,,---,0.16,VWS V14.01,2013-03-17 04:04:00,
2013-03-16 21:08:00,41.4,23.2,29.71,NNW,342,0.0,0.0,48,0.00,,---,0.16,VWS V14.01,2013-03-17 04:08:00,
2013-03-16 21:14:00,41.5,21.3,29.71,SE,141,0.0,3.6,44,0.00,,---,0.16,VWS V14.01,2013-03-17 04:14:00,
2013-03-16 21:20:00,41.4,21.6,29.71,NW,307,0.0,0.0,45,0.00,,---,0.16,VWS V14.01,2013-03-17 04:20:00,
2013-03-16 21:26:00,41.2,21.5,29.71,West,264,0.0,0.0,45,0.00,,---,0.16,VWS V14.01,2013-03-17 04:26:00,
2013-03-16 21:32:00,41.2,23.5,29.71,West,264,0.0,0.0,49,0.00,,---,0.16,VWS V14.01,2013-03-17 04:32:00,
2013-03-16 21:38:00,41.0,22.3,29.71,WNW,291,0.0,4.0,47,0.00,,---,0.16,VWS V14.01,2013-03-17 04:38:00,
2013-03-16 21:44:00,41.2,21.5,29.71,SW,229,2.7,5.8,45,0.00,,---,0.16,VWS V14.01,2013-03-17 04:44:00,
2013-03-16 21:50:00,41.2,22.5,29.71,East,95,0.0,0.0,47,0.00,,---,0.16,VWS V14.01,2013-03-17 04:50:00,
2013-03-16 21:56:00,41.0,21.8,29.71,WNW,287,3.1,3.1,46,0.00,,---,0.16,VWS V14.01,2013-03-17 04:56:00,
2013-03-16 22:02:00,41.2,22.5,29.71,SSW,192,2.2,4.0,47,0.00,,---,0.16,VWS V14.01,2013-03-17 05:02:00,
2013-03-16 22:08:00,41.0,21.8,29.71,WNW,299,0.0,2.2,46,0.00,,---,0.16,VWS V14.01,2013-03-17 05:08:00,
2013-03-16 22:14:00,41.0,22.8,29.71,WSW,241,0.0,0.0,48,0.00,,---,0.16,VWS V14.01,2013-03-17 05:14:00,
2013-03-16 22:20:00,40.6,20.5,29.71,WSW,251,4.0,4.0,44,0.00,,---,0.16,VWS V14.01,2013-03-17 05:20:00,
2013-03-16 22:26:00,40.6,21.0,29.74,SW,232,0.0,0.0,45,0.00,,---,0.16,VWS V14.01,2013-03-17 05:26:00,
2013-03-16 22:32:00,40.6,21.5,29.74,NW,307,0.0,3.1,46,0.00,,---,0.16,VWS V14.01,2013-03-17 05:32:00,
2013-03-16 22:38:00,40.6,20.5,29.74,WNW,287,0.0,0.0,44,0.00,,---,0.16,VWS V14.01,2013-03-17 05:38:00,
2013-03-16 22:44:00,40.5,21.8,29.74,North,8,0.0,3.6,47,0.00,,---,0.16,VWS V14.01,2013-03-17 05:44:00,
2013-03-16 22:50:00,40.6,22.5,29.74,West,279,0.0,2.7,48,0.00,,---,0.16,VWS V14.01,2013-03-17 05:50:00,
2013-03-16 22:56:00,40.6,22.5,29.74,ENE,68,0.0,0.0,48,0.00,,---,0.16,VWS V14.01,2013-03-17 05:56:00,
2013-03-16 23:02:00,40.5,22.8,29.74,ENE,59,0.0,0.0,49,0.00,,---,0.16,VWS V14.01,2013-03-17 06:02:00,
2013-03-16 23:08:00,40.5,23.3,29.74,NE,55,0.0,0.0,50,0.00,,---,0.16,VWS V14.01,2013-03-17 06:08:00,
2013-03-16 23:14:00,40.3,21.7,29.74,West,267,0.0,0.0,47,0.00,,---,0.16,VWS V14.01,2013-03-17 06:14:00,
2013-03-16 23:20:00,40.3,23.1,29.74,West,268,0.0,0.0,50,0.00,,---,0.16,VWS V14.01,2013-03-17 06:20:00,
2013-03-16 23:26:00,40.3,23.1,29.74,West,268,0.0,0.0,50,0.00,,---,0.16,VWS V14.01,2013-03-17 06:26:00,
2013-03-16 23:32:00,40.3,23.6,29.74,East,95,2.7,2.7,51,0.00,,---,0.16,VWS V14.01,2013-03-17 06:32:00,
2013-03-16 23:38:00,39.9,21.8,29.74,SE,130,0.0,0.0,48,0.00,,---,0.16,VWS V14.01,2013-03-17 06:38:00,
2013-03-16 23:44:00,39.9,22.8,29.74,West,275,0.0,0.0,50,0.00,,---,0.16,VWS V14.01,2013-03-17 06:44:00,
2013-03-16 23:50:00,39.9,22.3,29.74,North,1,0.0,0.0,49,0.00,,---,0.16,VWS V14.01,2013-03-17 06:50:00,
2013-03-16 23:56:00,39.7,21.7,29.77,North,5,0.0,2.2,48,0.00,,---,0.16,VWS V14.01,2013-03-17 06:56:00,